VA3DLF Weather Reports


time (UTC)temp
C
wind
direction
speed
KPH
gust
KPH
rain 1hr
cm
rain 24hr
cm
rain mn
cm
humidity
%
barometer
mb
20170817074758 11 27 0.0 0.0 0.00 0.00 0.00
20170817073800 11 27 0.0 0.0 0.00 0.00 0.00
20170817073257 11 27 0.0 0.0 0.00 0.00 0.00
20170817072756 11 27 0.0 0.0 0.00 0.00 0.00
20170817071755 11 27 0.0 0.0 0.00 0.00 0.00
20170817070756 11 27 0.0 0.0 0.00 0.00 0.00
20170817070254 11 27 0.0 0.0 0.00 0.00 0.00
20170817065754 11 27 0.0 0.0 0.00 0.00 0.00
20170817064752 12 27 0.0 0.0 0.00 0.00 0.00
20170817063752 12 27 0.0 0.0 0.00 0.00 0.00
20170817062750 12 27 0.0 0.0 0.00 0.00 0.00
20170817062251 12 27 0.0 0.0 0.00 0.00 0.00
20170817061750 12 27 0.0 0.0 0.00 0.00 0.00
20170817060749 12 27 0.0 0.0 0.00 0.00 0.00
20170817060247 12 27 0.0 0.0 0.00 0.00 0.00
20170817054744 12 30 0.0 0.0 0.00 0.00 0.00
20170817054245 12 30 0.0 0.0 0.00 0.00 0.00
20170817052243 12 30 0.0 0.0 0.00 0.00 0.00
20170817051241 13 30 0.0 0.0 0.00 0.00 0.00
20170817050239 13 30 0.0 0.0 0.00 0.00 0.00
20170817045738 13 30 0.0 0.0 0.00 0.00 0.00
20170817045239 13 30 0.0 0.0 0.00 4.32 0.00
20170817044736 13 30 0.0 0.0 0.00 4.32 0.00
20170817044236 13 30 0.0 0.0 0.00 4.32 0.00
20170817043737 13 30 0.0 0.0 0.00 4.32 0.00
20170817042734 13 30 0.0 0.0 0.00 4.32 0.00
20170817042235 13 30 0.0 0.0 0.00 4.32 0.00
20170817041732 13 30 0.0 0.0 0.00 4.32 0.00
20170817041233 13 30 0.0 0.0 0.00 4.32 0.00
20170817040733 13 30 0.0 0.0 0.00 4.32 0.00
20170817040230 13 30 0.0 0.0 0.00 4.32 0.00
20170817035901 13 30 0.0 0.0 0.00 4.32 0.00
20170817035729 13 30 0.0 0.0 0.00 4.32 0.00
20170817035228 13 30 0.0 0.0 0.00 4.32 0.00
20170817034726 13 30 0.0 0.0 0.00 4.32 0.00
20170817034228 13 30 0.0 0.0 0.00 4.32 0.00
20170817033225 13 30 0.0 0.0 0.00 4.32 0.00
20170817032226 13 30 0.0 0.0 0.00 4.32 0.00
20170817031724 13 30 0.0 0.0 0.00 4.32 0.00
20170817031224 13 30 0.0 0.0 0.00 4.32 0.00
20170817030724 13 30 0.0 0.0 0.00 4.32 0.00
20170817030221 13 30 0.0 0.0 0.00 4.32 0.00
20170817025721 13 30 0.0 0.0 0.00 4.32 0.00
20170817025222 13 30 0.0 0.0 0.00 4.32 0.00
20170817024720 14 30 0.0 0.0 0.00 4.32 0.00
20170817023820 14 30 0.0 0.0 0.00 4.32 0.00
20170817023722 14 30 0.0 0.0 0.00 4.32 0.00
20170817023219 14 30 0.0 0.0 0.00 4.32 0.00
20170817022220 14 30 0.0 0.0 0.00 4.32 0.00
20170817021717 15 30 0.0 0.0 0.00 4.32 0.00
20170817021355 15 30 0.0 0.0 0.00 4.32 0.00
20170817021218 15 30 0.0 0.0 0.00 4.32 0.00
20170817020718 15 30 0.0 0.0 0.00 4.32 0.00
20170817020216 15 30 0.0 0.0 0.00 4.32 0.00
20170817015716 15 30 0.0 0.0 0.00 4.32 0.00
20170817015217 15 30 0.0 0.0 0.00 4.32 0.00
20170817014215 15 30 0.0 0.0 0.00 4.32 0.00
20170817013715 16 30 0.0 0.0 0.00 4.32 0.00
20170817012712 16 203 0.0 0.0 0.00 4.32 0.00
20170817012212 16 203 0.0 0.0 0.00 4.32 0.00
20170817011710 16 203 0.0 0.0 0.00 4.32 0.00
20170817010710 16 203 0.0 0.0 0.00 4.32 0.00
20170817005207 17 203 0.0 0.0 0.00 4.32 0.00
20170817004705 17 203 0.0 0.0 0.00 4.32 0.00
20170817003705 17 203 0.0 0.0 0.00 4.32 0.00
20170817002205 17 203 0.0 0.0 0.00 4.32 0.00
20170817001201 18 190 0.0 0.0 0.00 4.32 0.00
20170817000702 18 159 0.0 0.0 0.00 4.32 0.00
20170817000159 20 159 0.0 0.0 0.00 4.32 0.00
20170816235200 20 195 3.2 6.4 0.00 4.32 0.00
20170816234158 21 235 6.4 6.4 0.00 4.32 0.00
20170816233156 21 221 4.8 8.0 0.00 4.32 0.00
20170816232657 21 207 4.8 6.4 0.00 4.32 0.00
20170816232155 21 104 0.0 0.0 0.00 4.32 0.00
20170816231653 22 41 0.0 0.0 0.00 4.32 0.00
20170816225651 22 32 4.8 3.2 0.00 4.32 0.00
20170816224649 22 14 8.0 9.7 0.00 4.32 0.00
20170816224150 22 31 3.2 3.2 0.00 4.32 0.00
20170816223650 22 42 6.4 4.8 0.00 4.32 0.00
20170816223148 23 41 4.8 4.8 0.00 4.32 0.00
20170816222648 22 31 4.8 4.8 0.00 4.32 0.00
20170816222149 22 53 8.0 8.0 0.00 4.32 0.00
20170816221147 23 38 9.7 11.3 0.00 4.32 0.00
20170816220647 23 46 8.0 12.9 0.00 4.32 0.00
20170816220147 22 27 11.3 4.8 0.00 4.32 0.00
20170816215645 23 51 6.4 6.4 0.00 4.32 0.00
20170816214143 23 352 12.9 8.0 0.00 4.32 0.00
20170816213142 23 336 6.4 4.8 0.00 4.32 0.00
20170816212642 23 11 9.7 11.3 0.00 4.32 0.00
20170816212143 23 28 9.7 9.7 0.00 4.32 0.00
20170816211640 23 294 3.2 6.4 0.00 4.32 0.00
20170816211138 23 20 11.3 11.3 0.00 4.32 0.00
20170816210136 25 273 4.8 6.4 0.00 4.32 0.00
20170816204637 23 7 3.2 3.2 0.00 4.32 0.00
20170816204135 23 58 9.7 9.7 0.00 4.32 0.00
20170816203132 24 20 3.2 0.0 0.00 4.32 0.00
20170816201631 23 21 9.7 9.7 0.00 4.32 0.00
20170816201131 22 24 9.7 11.3 0.00 4.32 0.00
20170816195130 23 283 3.2 1.6 0.00 4.32 0.00
20170816194628 22 336 6.4 6.4 0.00 4.32 0.00
20170816193629 22 330 9.7 11.3 0.00 4.32 0.00
20170816193127 23 312 11.3 14.5 0.00 4.32 0.00
20170816192627 22 1 4.8 4.8 0.00 4.32 0.00
20170816191626 23 221 4.8 3.2 0.00 4.32 0.00
20170816190124 23 191 6.4 1.6 0.00 4.32 0.00
20170816185125 23 280 8.0 6.4 0.00 4.32 0.00
20170816184622 23 321 8.0 12.9 0.00 4.32 0.00
20170816184122 22 359 11.3 6.4 0.00 4.32 0.00
20170816182621 22 328 8.0 12.9 0.00 4.32 0.00
20170816182121 21 1 12.9 11.3 0.00 4.32 0.00
20170816180620 22 25 9.7 12.9 0.00 4.32 0.00
20170816175119 22 333 14.5 9.7 0.00 4.32 0.00
20170816172117 21 356 11.3 14.5 0.00 4.32 0.00
20170816171614 21 7 9.7 4.8 0.00 4.32 0.00
20170816165613 21 340 6.4 11.3 0.00 4.32 0.00
20170816165114 21 359 12.9 6.4 0.00 4.32 0.00
20170816164611 21 323 11.3 4.8 0.00 4.32 0.00
20170816163611 21 347 4.8 4.8 0.00 4.32 0.00
20170816163109 21 345 9.7 9.7 0.00 4.32 0.00
20170816162610 21 6 12.9 9.7 0.00 4.32 0.00
20170816162111 21 1 11.3 9.7 0.00 4.32 0.00
20170816161608 21 39 9.7 8.0 0.00 4.32 0.00
20170816161110 21 77 11.3 6.4 0.00 4.32 0.00
20170816160609 21 34 8.0 6.4 0.00 4.32 0.00
20170816160107 21 18 9.7 8.0 0.00 4.32 0.00
20170816155608 20 32 14.5 9.7 0.00 4.32 0.00
20170816155108 21 17 4.8 17.7 0.00 4.32 0.00
20170816154606 21 28 8.0 12.9 0.00 4.32 0.00
20170816154106 21 108 8.0 8.0 0.00 4.32 0.00
20170816153607 21 105 9.7 4.8 0.00 4.32 0.00
20170816152605 20 111 8.0 4.8 0.00 4.32 0.00
20170816152104 20 28 14.5 11.3 0.00 4.32 0.00
20170816151102 21 108 6.4 4.8 0.00 4.32 0.00
20170816150602 20 69 8.0 8.0 0.00 4.32 0.00
20170816150100 20 42 12.9 11.3 0.00 4.32 0.00
20170816145101 20 336 4.8 3.2 0.00 4.32 0.00
20170816144559 20 37 9.7 12.9 0.00 4.32 0.00
20170816143601 19 46 11.3 9.7 0.00 4.32 0.00
20170816143058 20 44 9.7 14.5 0.00 4.32 0.00
20170816142059 18 21 12.9 12.9 0.00 4.32 0.00
20170816141557 18 44 11.3 14.5 0.00 4.32 0.00
20170816135056 18 132 8.0 6.4 0.00 4.32 0.00
20170816134554 18 28 11.3 9.7 0.00 4.32 0.00
20170816134054 18 42 8.0 8.0 0.00 4.32 0.00
20170816133552 17 49 14.5 11.3 0.00 4.32 0.00
20170816133050 17 32 9.7 9.7 0.00 4.32 0.00
20170816132550 17 34 11.3 12.9 0.00 4.32 0.00
20170816132053 17 15 9.7 11.3 0.00 4.32 0.00
20170816131048 17 55 9.7 11.3 0.00 4.32 0.00
20170816130549 17 37 12.9 11.3 0.00 4.32 0.00
20170816125047 16 56 11.3 12.9 0.00 4.32 0.00
20170816122543 16 30 8.0 6.4 0.00 4.32 0.00
20170816121541 16 32 6.4 6.4 0.00 4.32 0.00
20170816120542 15 37 6.4 4.8 0.00 4.32 0.00
20170816113035 14 38 6.4 8.0 0.00 4.32 0.00
20170816112535 14 32 6.4 8.0 0.00 4.32 0.00
20170816112036 14 25 4.8 4.8 0.00 4.32 0.00
20170816111534 14 51 3.2 3.2 0.00 4.32 0.00
20170816105533 14 34 4.8 4.8 0.00 4.32 0.00
20170816104531 13 34 4.8 4.8 0.00 4.32 0.00
20170816103030 13 134 3.2 3.2 0.00 4.32 0.00
20170816102531 13 51 4.8 4.8 0.00 4.32 0.00
20170816101529 14 65 4.8 3.2 0.00 4.32 0.00
20170816100530 14 51 8.0 9.7 0.00 4.32 0.00
20170816095029 14 80 9.7 6.4 0.00 4.32 0.00
20170816094527 14 20 8.0 9.7 0.00 4.32 0.00
20170816094027 14 31 8.0 8.0 0.00 4.32 0.00
20170816091526 15 41 9.7 11.3 0.00 4.32 0.00
20170816091024 15 39 11.3 11.3 0.00 4.32 0.00
20170816090524 15 27 11.3 12.9 0.00 4.32 0.00
20170816090022 15 38 9.7 12.9 0.00 4.32 0.00
20170816085523 15 35 9.7 8.0 0.00 4.32 0.00
20170816084521 15 34 12.9 17.7 0.00 4.32 0.00
20170816083524 15 65 11.3 14.5 0.00 4.32 0.00
20170816082519 15 13 9.7 8.0 0.00 4.32 0.00
20170816081517 16 34 12.9 9.7 0.00 4.32 0.00
20170816081018 16 6 11.3 9.7 0.00 4.32 0.00
20170816080518 16 13 16.1 11.3 0.00 4.32 0.00
20170816080014 16 24 11.3 8.0 0.00 4.32 0.00
20170816075515 16 10 9.7 11.3 0.00 4.32 0.00